NXCC EGKR-EGKK

Flight info

Callsign NXCC
Flight time 0h -14m
Altitude 2000
Route VRF DIRECT
Aircraft C152/L-VGD/A

Departure

Time 2026-04-23 19:34
Airport Redhill Aerodrome (EGKR)

Arrival

Time 2026-04-23 19:19
Airport London Gatwick Airport (EGKK)
Time Latitude Longitude Altitude Speed Heading
2026-04-23 19:19 51.21335 -0.13025 201 ft 0 kts 59°
2026-04-23 19:21 51.21330 -0.13058 205 ft 5 kts 226°
2026-04-23 19:21 51.21297 -0.13132 201 ft 13 kts 237°
2026-04-23 19:22 51.21244 -0.13289 203 ft 17 kts 240°
2026-04-23 19:22 51.21195 -0.13461 205 ft 17 kts 264°
2026-04-23 19:22 51.21139 -0.13851 207 ft 19 kts 254°
2026-04-23 19:23 51.21109 -0.14013 204 ft 1 kts 252°
2026-04-23 19:23 51.21092 -0.14114 203 ft 19 kts 255°
2026-04-23 19:23 51.21046 -0.14347 211 ft 22 kts 247°
2026-04-23 19:24 51.21023 -0.14709 218 ft 14 kts 318°
2026-04-23 19:24 51.21043 -0.14729 218 ft 8 kts 333°
2026-04-23 19:24 51.21276 -0.14757 221 ft 9 kts 32°
2026-04-23 19:25 51.21338 -0.14616 220 ft 0 kts 40°
2026-04-23 19:26 51.21363 -0.14595 219 ft 12 kts 20°
2026-04-23 19:26 51.21465 -0.14569 216 ft 16 kts 28°
2026-04-23 19:27 51.21620 -0.14364 211 ft 16 kts 47°
2026-04-23 19:27 51.21895 -0.14185 210 ft 10 kts 48°
2026-04-23 19:28 51.21912 -0.14131 211 ft 0 kts 68°
2026-04-23 19:32 51.21914 -0.14120 216 ft 5 kts 88°
2026-04-23 19:33 51.21896 -0.14068 213 ft 6 kts 186°
2026-04-23 19:33 51.21831 -0.14063 212 ft 26 kts 178°
2026-04-23 19:33 51.21006 -0.14172 478 ft 66 kts 173°
2026-04-23 19:34 51.20550 -0.14240 669 ft 69 kts 173°
2026-04-23 19:34 51.20174 -0.13989 842 ft 57 kts 102°
2026-04-23 19:34 51.20816 -0.13437 1226 ft 66 kts 18°
2026-04-23 19:35 51.21299 -0.13418 1366 ft 77 kts 16°
2026-04-23 19:35 51.21863 -0.13351 1474 ft 84 kts 17°
2026-04-23 19:35 51.22468 -0.13254 1536 ft 90 kts 17°
2026-04-23 19:35 51.23111 -0.13114 1504 ft 93 kts 20°
2026-04-23 19:36 51.23752 -0.12926 1512 ft 94 kts 21°
2026-04-23 19:36 51.24384 -0.12745 1604 ft 92 kts 20°
2026-04-23 19:36 51.24996 -0.12581 1730 ft 86 kts 21°
2026-04-23 19:36 51.25603 -0.12400 1790 ft 89 kts 21°
2026-04-23 19:37 51.26242 -0.12273 1849 ft 95 kts 17°
2026-04-23 19:37 51.26916 -0.12171 1853 ft 96 kts 18°
2026-04-23 19:37 51.27602 -0.12077 1704 ft 103 kts 10°
2026-04-23 19:37 51.28306 -0.12339 1595 ft 107 kts 342°
2026-04-23 19:38 51.28829 -0.13162 1560 ft 106 kts 306°
2026-04-23 19:38 51.28934 -0.14318 1502 ft 109 kts 261°
2026-04-23 19:38 51.28604 -0.15393 1326 ft 109 kts 224°
2026-04-23 19:38 51.28008 -0.16011 1226 ft 98 kts 189°
2026-04-23 19:39 51.27390 -0.16154 1167 ft 80 kts 152°
2026-04-23 19:39 51.27053 -0.15606 1128 ft 71 kts 104°
2026-04-23 19:39 51.27053 -0.14835 1157 ft 71 kts 62°
2026-04-23 19:39 51.27498 -0.14515 1212 ft 81 kts
2026-04-23 19:40 51.27945 -0.15158 1265 ft 90 kts 307°
2026-04-23 19:40 51.28125 -0.16146 1275 ft 103 kts 276°
2026-04-23 19:40 51.27927 -0.17232 1355 ft 100 kts 223°
2026-04-23 19:40 51.27358 -0.17507 1480 ft 82 kts 148°
2026-04-23 19:41 51.27150 -0.16865 1589 ft 65 kts 76°
2026-04-23 19:41 51.27326 -0.16142 1597 ft 77 kts 68°
2026-04-23 19:41 51.27565 -0.15335 1644 ft 81 kts 67°
2026-04-23 19:41 51.27809 -0.14530 1683 ft 81 kts 66°
2026-04-23 19:42 51.28081 -0.13718 1619 ft 85 kts 65°
2026-04-23 19:42 51.28342 -0.12865 1519 ft 86 kts 75°
2026-04-23 19:42 51.28328 -0.11983 1563 ft 77 kts 100°
2026-04-23 19:42 51.28197 -0.11138 1519 ft 80 kts 100°
2026-04-23 19:43 51.28067 -0.10339 1534 ft 73 kts 99°
2026-04-23 19:43 51.28052 -0.09550 1528 ft 71 kts 78°
2026-04-23 19:43 51.28268 -0.08854 1539 ft 71 kts 63°
2026-04-23 19:43 51.28514 -0.08178 1635 ft 70 kts 65°
2026-04-23 19:44 51.28673 -0.07506 1768 ft 55 kts 88°
2026-04-23 19:44 51.28321 -0.07222 1765 ft 84 kts 173°
2026-04-23 19:44 51.27696 -0.07334 1673 ft 94 kts 176°
2026-04-23 19:44 51.27068 -0.07436 1873 ft 86 kts 173°
2026-04-23 19:45 51.26482 -0.07572 1983 ft 90 kts 176°
2026-04-23 19:45 51.25948 -0.07439 2110 ft 76 kts 144°
2026-04-23 19:45 51.25523 -0.07085 2335 ft 67 kts 134°
2026-04-23 19:45 51.25138 -0.06680 2522 ft 68 kts 134°
2026-04-23 19:46 51.24751 -0.06278 2722 ft 68 kts 134°
2026-04-23 19:46 51.24365 -0.05791 2818 ft 73 kts 118°
2026-04-23 19:46 51.24169 -0.04994 2838 ft 78 kts 96°